User: anonymous   Login
Location: Unspecified
(0.0000°N, 0.0000°E)
Time: 15:28:14
(UTC+00:00)
Language:

JY1SAT - Orbit

View from above orbital plane
View from above orbital plane
View from above satellite
View from above satellite

Ground track
Ground track

The orbit data is extracted from the following two-line orbital elements,

1 43803U 18099AX  20293.16395894  .00000328  00000-0  34667-4 0  9999
2 43803  97.6929   2.6191 0016283 133.8971 226.3598 14.95588449102424
Epoch (UTC): 19 October 2020 03:56:06
Eccentricity: 0.0016283
inclination: 97.6929°
perigee height: 569 km
apogee height: 592 km
right ascension of ascending node: 2.6191°
argument of perigee: 133.8971°
revolutions per day: 14.95588449
mean anomaly at epoch: 226.3598°
orbit number at epoch: 10242

The dashed part of the orbit path shows where the satellite is in the earth's shadow,  

DLR